| time (UTC) | temp C | wind direction | speed KPH | gust KPH | rain 1hr cm | rain 24hr cm | rain mn cm | humidity % | barometer mb |
| 20260504050710 | 8 | 265 | 9.7 | 12.9 | 0.00 | 0.00 | 0.00 | 55 | 1011.4 |
| 20260504050206 | 8 | 199 | 3.2 | 3.2 | 0.00 | 0.00 | 0.00 | 55 | 1011.3 |
| 20260504045703 | 8 | 187 | 0.0 | 0.0 | 0.00 | 0.00 | 0.00 | 57 | 1011.4 |
| 20260504045158 | 8 | 194 | 1.6 | 3.2 | 0.00 | 0.00 | 0.00 | 57 | 1011.3 |
| 20260504044656 | 8 | 172 | 1.6 | 1.6 | 0.00 | 0.00 | 0.00 | 56 | 1011.3 |
| 20260504044153 | 9 | 188 | 0.0 | 1.6 | 0.00 | 0.00 | 0.00 | 56 | 1011.0 |
| 20260504043650 | 10 | 187 | 0.0 | 1.6 | 0.00 | 0.00 | 0.00 | 54 | 1011.1 |
| 20260504043147 | 10 | 183 | 0.0 | 1.6 | 0.00 | 0.00 | 0.00 | 53 | 1011.0 |
| 20260504042644 | 10 | 193 | 1.6 | 1.6 | 0.00 | 0.00 | 0.00 | 53 | 1011.2 |
| 20260504042141 | 10 | 181 | 0.0 | 0.0 | 0.00 | 0.00 | 0.00 | 53 | 1011.0 |
| 20260504041637 | 10 | 181 | 0.0 | 0.0 | 0.00 | 0.00 | 0.00 | 53 | 1011.3 |
| 20260504041133 | 10 | 182 | 0.0 | 0.0 | 0.00 | 0.00 | 0.00 | 52 | 1011.2 |
| 20260504040630 | 10 | 272 | 3.2 | 4.8 | 0.00 | 0.00 | 0.00 | 51 | 1011.2 |
| 20260504040127 | 10 | 237 | 3.2 | 3.2 | 0.00 | 0.00 | 0.00 | 50 | 1011.4 |
| 20260504035624 | 10 | 167 | 0.0 | 0.0 | 0.00 | 0.00 | 0.00 | 52 | 1011.2 |
| 20260504035120 | 10 | 191 | 1.6 | 3.2 | 0.00 | 0.00 | 0.00 | 52 | 1011.2 |
| 20260504034619 | 11 | 196 | 0.0 | 0.0 | 0.00 | 0.00 | 0.00 | 52 | 1011.1 |
| 20260504034115 | 11 | 209 | 1.6 | 1.6 | 0.00 | 0.00 | 0.00 | 50 | 1011.2 |
| 20260504033613 | 11 | 194 | 1.6 | 1.6 | 0.00 | 0.00 | 0.00 | 49 | 1011.0 |
| 20260504033110 | 11 | 202 | 0.0 | 1.6 | 0.00 | 0.00 | 0.00 | 48 | 1011.0 |
| 20260504032607 | 11 | 211 | 1.6 | 1.6 | 0.00 | 0.00 | 0.00 | 47 | 1011.3 |
| 20260504032104 | 11 | 290 | 3.2 | 3.2 | 0.00 | 0.00 | 0.00 | 47 | 1011.3 |
| 20260504031601 | 11 | 206 | 3.2 | 4.8 | 0.00 | 0.00 | 0.00 | 47 | 1011.3 |
| 20260504031056 | 11 | 240 | 3.2 | 3.2 | 0.00 | 0.00 | 0.00 | 47 | 1011.4 |
| 20260504030554 | 11 | 246 | 4.8 | 4.8 | 0.00 | 0.00 | 0.00 | 47 | 1011.2 |
| 20260504030050 | 12 | 213 | 1.6 | 1.6 | 0.00 | 0.00 | 0.00 | 46 | 1011.4 |
| 20260504025548 | 12 | 254 | 11.3 | 12.9 | 0.00 | 0.00 | 0.00 | 45 | 1011.5 |
| 20260504025044 | 11 | 316 | 6.4 | 9.7 | 0.00 | 0.00 | 0.00 | 47 | 1011.4 |
| 20260504024542 | 11 | 272 | 8.0 | 11.3 | 0.00 | 0.00 | 0.00 | 47 | 1011.6 |
| 20260504024038 | 11 | 277 | 4.8 | 8.0 | 0.00 | 0.00 | 0.00 | 50 | 1011.7 |
| 20260504023535 | 11 | 273 | 3.2 | 3.2 | 0.00 | 0.00 | 0.00 | 51 | 1011.7 |
| 20260504023031 | 11 | 314 | 8.0 | 11.3 | 0.00 | 0.00 | 0.00 | 50 | 1011.7 |
| 20260504022526 | 11 | 236 | 4.8 | 4.8 | 0.00 | 0.00 | 0.00 | 50 | 1011.5 |
| 20260504022023 | 11 | 229 | 3.2 | 3.2 | 0.00 | 0.00 | 0.00 | 50 | 1011.7 |
| 20260504021521 | 11 | 265 | 12.9 | 14.5 | 0.00 | 0.00 | 0.00 | 50 | 1011.8 |
| 20260504021018 | 11 | 291 | 8.0 | 9.7 | 0.00 | 0.00 | 0.00 | 50 | 1011.8 |
| 20260504020514 | 11 | 351 | 11.3 | 12.9 | 0.00 | 0.00 | 0.00 | 50 | 1012.0 |
| 20260504020011 | 11 | 298 | 4.8 | 8.0 | 0.00 | 0.00 | 0.00 | 50 | 1011.9 |
| 20260504015507 | 11 | 307 | 4.8 | 8.0 | 0.00 | 0.00 | 0.00 | 49 | 1011.7 |
| 20260504015003 | 11 | 320 | 6.4 | 9.7 | 0.00 | 0.00 | 0.00 | 49 | 1011.7 |
| 20260504014459 | 11 | 233 | 3.2 | 3.2 | 0.00 | 0.00 | 0.00 | 50 | 1011.7 |
| 20260504013956 | 11 | 255 | 3.2 | 3.2 | 0.00 | 0.00 | 0.00 | 50 | 1011.8 |
| 20260504013455 | 11 | 308 | 9.7 | 11.3 | 0.00 | 0.00 | 0.00 | 49 | 1011.6 |
| 20260504012950 | 11 | 329 | 11.3 | 12.9 | 0.00 | 0.00 | 0.00 | 49 | 1011.7 |
| 20260504012449 | 11 | 293 | 12.9 | 16.1 | 0.00 | 0.00 | 0.00 | 49 | 1011.5 |
| 20260504011947 | 11 | 322 | 16.1 | 20.9 | 0.00 | 0.00 | 0.00 | 49 | 1011.9 |
| 20260504011442 | 11 | 335 | 9.7 | 11.3 | 0.00 | 0.00 | 0.00 | 51 | 1011.7 |
| 20260504010939 | 11 | 324 | 6.4 | 8.0 | 0.00 | 0.00 | 0.00 | 51 | 1011.5 |
| 20260504010434 | 11 | 230 | 1.6 | 1.6 | 0.00 | 0.00 | 0.00 | 52 | 1011.6 |
| 20260504005931 | 11 | 275 | 4.8 | 4.8 | 0.00 | 0.00 | 0.00 | 51 | 1011.4 |
| 20260504005428 | 11 | 196 | 1.6 | 1.6 | 0.00 | 0.00 | 0.00 | 50 | 1011.4 |
| 20260504004925 | 11 | 278 | 4.8 | 4.8 | 0.00 | 0.00 | 0.00 | 50 | 1011.6 |
| 20260504004423 | 11 | 3 | 6.4 | 9.7 | 0.00 | 0.00 | 0.00 | 49 | 1011.3 |
| 20260504003920 | 11 | 310 | 4.8 | 4.8 | 0.00 | 0.00 | 0.00 | 48 | 1011.4 |
| 20260504003416 | 11 | 306 | 12.9 | 16.1 | 0.00 | 0.00 | 0.00 | 47 | 1011.2 |
| 20260504002913 | 11 | 312 | 11.3 | 16.1 | 0.00 | 0.00 | 0.00 | 47 | 1011.3 |
| 20260504002410 | 11 | 234 | 6.4 | 9.7 | 0.00 | 0.00 | 0.00 | 47 | 1011.2 |
| 20260504001907 | 11 | 304 | 8.0 | 9.7 | 0.00 | 0.00 | 0.00 | 46 | 1011.2 |
| 20260504001405 | 11 | 262 | 17.7 | 20.9 | 0.00 | 0.00 | 0.00 | 46 | 1011.0 |
| 20260504000901 | 11 | 219 | 3.2 | 4.8 | 0.00 | 0.00 | 0.00 | 47 | 1011.1 |
| 20260504000358 | 11 | 295 | 4.8 | 4.8 | 0.00 | 0.00 | 0.00 | 51 | 1011.0 |
| 20260503235855 | 11 | 198 | 0.0 | 1.6 | 0.00 | 0.00 | 0.00 | 51 | 1010.9 |
| 20260503235353 | 11 | 143 | 1.6 | 3.2 | 0.00 | 0.00 | 0.00 | 51 | 1010.7 |
| 20260503234850 | 11 | 135 | 1.6 | 1.6 | 0.00 | 0.00 | 0.00 | 49 | 1010.6 |
| 20260503234348 | 11 | 153 | 0.0 | 0.0 | 0.00 | 0.00 | 0.00 | 49 | 1010.7 |
| 20260503233846 | 11 | 137 | 1.6 | 1.6 | 0.00 | 0.00 | 0.00 | 49 | 1010.6 |
| 20260503233342 | 12 | 195 | 0.0 | 1.6 | 0.00 | 0.00 | 0.00 | 48 | 1010.4 |
| 20260503232838 | 12 | 192 | 0.0 | 0.0 | 0.00 | 0.00 | 0.00 | 43 | 1010.4 |
| 20260503232335 | 13 | 260 | 6.4 | 8.0 | 0.00 | 0.00 | 0.00 | 41 | 1010.4 |
| 20260503231834 | 13 | 258 | 4.8 | 4.8 | 0.00 | 0.00 | 0.00 | 41 | 1010.3 |
| 20260503231330 | 13 | 245 | 3.2 | 3.2 | 0.00 | 0.00 | 0.00 | 42 | 1010.6 |
| 20260503230826 | 12 | 212 | 1.6 | 1.6 | 0.00 | 0.00 | 0.00 | 42 | 1010.5 |
| 20260503230323 | 12 | 247 | 4.8 | 4.8 | 0.00 | 0.00 | 0.00 | 42 | 1010.3 |
| 20260503225821 | 12 | 254 | 4.8 | 4.8 | 0.00 | 0.00 | 0.00 | 44 | 1010.4 |
| 20260503225317 | 12 | 201 | 1.6 | 1.6 | 0.00 | 0.00 | 0.00 | 44 | 1010.5 |
| 20260503224813 | 12 | 242 | 3.2 | 3.2 | 0.00 | 0.00 | 0.00 | 43 | 1010.5 |
| 20260503224311 | 12 | 287 | 8.0 | 11.3 | 0.00 | 0.00 | 0.00 | 43 | 1010.4 |
| 20260503223808 | 12 | 149 | 1.6 | 1.6 | 0.00 | 0.00 | 0.00 | 42 | 1010.7 |
| 20260503223306 | 13 | 312 | 6.4 | 9.7 | 0.00 | 0.00 | 0.00 | 42 | 1010.4 |
| 20260503222801 | 12 | 261 | 8.0 | 9.7 | 0.00 | 0.00 | 0.00 | 41 | 1010.4 |
| 20260503222300 | 13 | 313 | 11.3 | 14.5 | 0.00 | 0.00 | 0.00 | 41 | 1010.6 |
| 20260503221757 | 13 | 292 | 12.9 | 14.5 | 0.00 | 0.00 | 0.00 | 41 | 1010.6 |
| 20260503221255 | 13 | 286 | 11.3 | 11.3 | 0.00 | 0.00 | 0.00 | 40 | 1010.8 |
| 20260503220751 | 13 | 265 | 4.8 | 4.8 | 0.00 | 0.00 | 0.00 | 41 | 1010.7 |
| 20260503220249 | 13 | 317 | 4.8 | 4.8 | 0.00 | 0.00 | 0.00 | 41 | 1010.7 |
| 20260503215745 | 13 | 320 | 12.9 | 16.1 | 0.00 | 0.00 | 0.00 | 41 | 1010.8 |
| 20260503215242 | 13 | 275 | 11.3 | 14.5 | 0.00 | 0.00 | 0.00 | 42 | 1011.1 |
| 20260503214740 | 12 | 243 | 8.0 | 9.7 | 0.00 | 0.00 | 0.00 | 42 | 1010.9 |
| 20260503214237 | 12 | 276 | 11.3 | 14.5 | 0.00 | 0.00 | 0.00 | 43 | 1010.8 |
| 20260503213735 | 12 | 273 | 12.9 | 16.1 | 0.00 | 0.00 | 0.00 | 43 | 1010.8 |
| 20260503213232 | 12 | 283 | 11.3 | 14.5 | 0.00 | 0.00 | 0.00 | 43 | 1010.9 |
| 20260503212729 | 12 | 248 | 6.4 | 9.7 | 0.00 | 0.00 | 0.00 | 44 | 1010.8 |
| 20260503212227 | 12 | 324 | 8.0 | 8.0 | 0.00 | 0.00 | 0.00 | 44 | 1010.7 |
| 20260503211724 | 12 | 277 | 4.8 | 8.0 | 0.00 | 0.00 | 0.00 | 44 | 1010.8 |
| 20260503211220 | 12 | 238 | 8.0 | 11.3 | 0.00 | 0.00 | 0.00 | 45 | 1010.9 |
| 20260503210715 | 11 | 336 | 6.4 | 8.0 | 0.00 | 0.00 | 0.00 | 45 | 1010.9 |
| 20260503210213 | 11 | 331 | 14.5 | 14.5 | 0.00 | 0.00 | 0.00 | 45 | 1011.0 |
| 20260503205708 | 11 | 304 | 6.4 | 8.0 | 0.00 | 0.00 | 0.00 | 46 | 1010.9 |
| 20260503205205 | 11 | 282 | 4.8 | 4.8 | 0.00 | 0.00 | 0.00 | 45 | 1011.1 |
| 20260503204701 | 11 | 292 | 12.9 | 22.5 | 0.00 | 0.00 | 0.00 | 43 | 1010.7 |
| 20260503204159 | 11 | 259 | 9.7 | 11.3 | 0.00 | 0.00 | 0.00 | 43 | 1010.7 |
| 20260503203656 | 11 | 304 | 9.7 | 14.5 | 0.00 | 0.00 | 0.00 | 42 | 1010.7 |
| 20260503203154 | 12 | 256 | 11.3 | 14.5 | 0.00 | 0.00 | 0.00 | 41 | 1010.9 |
| 20260503202650 | 12 | 258 | 8.0 | 12.9 | 0.00 | 0.00 | 0.00 | 41 | 1010.7 |
| 20260503202148 | 12 | 258 | 4.8 | 9.7 | 0.00 | 0.00 | 0.00 | 40 | 1010.8 |
| 20260503201646 | 12 | 250 | 6.4 | 11.3 | 0.00 | 0.00 | 0.00 | 41 | 1010.8 |
| 20260503201143 | 12 | 334 | 6.4 | 8.0 | 0.00 | 0.00 | 0.00 | 40 | 1011.0 |
| 20260503200639 | 12 | 277 | 9.7 | 12.9 | 0.00 | 0.00 | 0.00 | 39 | 1010.9 |
| 20260503200136 | 12 | 305 | 8.0 | 11.3 | 0.00 | 0.00 | 0.00 | 40 | 1010.9 |
| 20260503195633 | 12 | 227 | 1.6 | 3.2 | 0.00 | 0.00 | 0.00 | 41 | 1010.9 |
| 20260503195130 | 11 | 291 | 11.3 | 12.9 | 0.00 | 0.00 | 0.00 | 40 | 1010.8 |
| 20260503194627 | 11 | 212 | 8.0 | 9.7 | 0.00 | 0.00 | 0.00 | 40 | 1011.3 |
| 20260503194122 | 11 | 268 | 6.4 | 8.0 | 0.00 | 0.00 | 0.00 | 40 | 1011.0 |
| 20260503193620 | 11 | 317 | 9.7 | 11.3 | 0.00 | 0.00 | 0.00 | 40 | 1011.3 |
| 20260503193115 | 12 | 216 | 8.0 | 11.3 | 0.00 | 0.00 | 0.00 | 40 | 1011.2 |
| 20260503192611 | 12 | 312 | 9.7 | 11.3 | 0.00 | 0.00 | 0.00 | 40 | 1011.4 |
| 20260503192106 | 11 | 18 | 6.4 | 9.7 | 0.00 | 0.00 | 0.00 | 40 | 1011.4 |
| 20260503191558 | 11 | 330 | 6.4 | 8.0 | 0.00 | 0.00 | 0.00 | 40 | 1011.5 |
| 20260503191054 | 12 | 301 | 24.1 | 29.0 | 0.00 | 0.00 | 0.00 | 38 | 1011.4 |
| 20260503190551 | 11 | 254 | 14.5 | 16.1 | 0.00 | 0.00 | 0.00 | 38 | 1011.4 |
| 20260503190048 | 11 | 285 | 9.7 | 12.9 | 0.00 | 0.00 | 0.00 | 39 | 1011.6 |
| 20260503185539 | 11 | 341 | 9.7 | 11.3 | 0.00 | 0.00 | 0.00 | 39 | 1011.8 |
| 20260503185039 | 11 | 269 | 12.9 | 17.7 | 0.00 | 0.00 | 0.00 | 39 | 1011.5 |
| 20260503184535 | 11 | 232 | 4.8 | 4.8 | 0.00 | 0.00 | 0.00 | 39 | 1011.3 |
| 20260503184032 | 12 | 31 | 11.3 | 14.5 | 0.00 | 0.00 | 0.00 | 38 | 1011.5 |
| 20260503183528 | 11 | 290 | 16.1 | 17.7 | 0.00 | 0.00 | 0.00 | 38 | 1011.7 |
| 20260503183026 | 12 | 303 | 9.7 | 14.5 | 0.00 | 0.00 | 0.00 | 37 | 1011.8 |
| 20260503182524 | 11 | 175 | 3.2 | 4.8 | 0.00 | 0.00 | 0.00 | 39 | 1011.8 |
| 20260503182022 | 11 | 305 | 24.1 | 33.8 | 0.00 | 0.00 | 0.00 | 38 | 1012.0 |
| 20260503181518 | 11 | 309 | 12.9 | 16.1 | 0.00 | 0.00 | 0.00 | 38 | 1011.8 |
| 20260503181015 | 12 | 337 | 9.7 | 16.1 | 0.00 | 0.00 | 0.00 | 40 | 1012.1 |
| 20260503180512 | 11 | 125 | 4.8 | 9.7 | 0.00 | 0.00 | 0.00 | 40 | 1012.1 |
| 20260503180009 | 11 | 336 | 8.0 | 12.9 | 0.00 | 0.00 | 0.00 | 39 | 1011.9 |
| 20260503175507 | 11 | 199 | 3.2 | 3.2 | 0.00 | 0.00 | 0.00 | 40 | 1012.2 |
| 20260503175003 | 11 | 235 | 9.7 | 14.5 | 0.00 | 0.00 | 0.00 | 40 | 1012.1 |
| 20260503174501 | 11 | 207 | 4.8 | 8.0 | 0.00 | 0.00 | 0.00 | 39 | 1012.4 |
| 20260503173956 | 11 | 290 | 14.5 | 17.7 | 0.00 | 0.00 | 0.00 | 39 | 1012.6 |
| 20260503173452 | 11 | 229 | 11.3 | 12.9 | 0.00 | 0.00 | 0.00 | 38 | 1012.4 |
| 20260503172949 | 10 | 300 | 9.7 | 12.9 | 0.00 | 0.00 | 0.00 | 39 | 1012.7 |
| 20260503172446 | 10 | 280 | 14.5 | 24.1 | 0.00 | 0.00 | 0.00 | 40 | 1012.8 |
| 20260503171943 | 10 | 318 | 14.5 | 20.9 | 0.00 | 0.00 | 0.00 | 40 | 1012.6 |
| 20260503171439 | 10 | 280 | 19.3 | 32.2 | 0.00 | 0.00 | 0.00 | 41 | 1012.4 |
| 20260503170937 | 10 | 292 | 8.0 | 14.5 | 0.00 | 0.00 | 0.00 | 40 | 1012.7 |
| 20260503170433 | 10 | 269 | 11.3 | 14.5 | 0.00 | 0.00 | 0.00 | 40 | 1012.9 |
| 20260503150826 | 8 | 187 | 3.2 | 4.8 | 0.00 | 0.00 | 0.00 | 43 | 1013.6 |
| 20260503150321 | 8 | 271 | 6.4 | 8.0 | 0.00 | 0.00 | 0.00 | 44 | 1013.7 |
| 20260503140246 | 7 | 274 | 14.5 | 22.5 | 0.00 | 0.00 | 0.00 | 44 | 1013.8 |
| 20260503131215 | 5 | 191 | 3.2 | 4.8 | 0.00 | 0.00 | 0.00 | 54 | 1013.9 |
| 20260503130713 | 5 | 260 | 14.5 | 16.1 | 0.00 | 0.00 | 0.00 | 55 | 1013.9 |
| 20260503130210 | 5 | 225 | 8.0 | 11.3 | 0.00 | 0.00 | 0.00 | 56 | 1014.1 |
| 20260503120136 | 4 | 175 | 3.2 | 3.2 | 0.00 | 0.00 | 0.00 | 69 | 1014.2 |
| 20260503110604 | 3 | 316 | 4.8 | 4.8 | 0.00 | 0.00 | 0.00 | 75 | 1013.7 |
| 20260503090450 | 3 | 321 | 4.8 | 8.0 | 0.00 | 0.00 | 0.00 | 74 | 1012.9 |
| 20260503081417 | 3 | 189 | 0.0 | 0.0 | 0.00 | 0.00 | 0.00 | 74 | 1013.0 |
| 20260503080914 | 3 | 294 | 4.8 | 4.8 | 0.00 | 0.00 | 0.00 | 74 | 1013.1 |
| 20260503080410 | 3 | 161 | 0.0 | 0.0 | 0.00 | 0.00 | 0.00 | 74 | 1013.3 |
| 20260503072847 | 3 | 311 | 4.8 | 4.8 | 0.00 | 0.00 | 0.00 | 74 | 1013.3 |
| 20260503072344 | 3 | 268 | 3.2 | 3.2 | 0.00 | 0.00 | 0.00 | 74 | 1012.9 |
| 20260503071840 | 3 | 191 | 0.0 | 0.0 | 0.00 | 0.00 | 0.00 | 74 | 1013.1 |
| 20260503071337 | 3 | 214 | 1.6 | 3.2 | 0.00 | 0.00 | 0.00 | 74 | 1013.1 |
| 20260503070833 | 3 | 301 | 6.4 | 8.0 | 0.00 | 0.00 | 0.00 | 74 | 1013.0 |
| 20260503070332 | 3 | 197 | 1.6 | 1.6 | 0.00 | 0.00 | 0.00 | 74 | 1012.8 |
| 20260503060256 | 3 | 339 | 3.2 | 3.2 | 0.00 | 0.00 | 0.00 | 75 | 1013.6 |
| 20260503054744 | 3 | 187 | 0.0 | 1.6 | 0.00 | 0.00 | 0.00 | 75 | 1013.5 |
| 20260503054240 | 3 | 152 | 0.0 | 0.0 | 0.00 | 0.00 | 0.00 | 76 | 1013.6 |